Starlink 33848

operational
NORAD ID: 63705 Int'l Des: 2025-087 Owner: SPXS Country: US Constellation: starlink
LEOCIRCULAR

About Starlink 33848

Description loading...

Live Position

Loading 3D Globe...

Upcoming Passes

Altitude History

Altitude vs Time

uPlot chart will show altitude changes over time

Two-Line Element Set

1 63705U 25087J 26102.27349565 .00011668 00000-0 40544-3 0 9997
2 63705 53.1607 63.4048 0001294 88.1359 271.9790 15.30202506 54334
Epoch: Apr 12, 2026 • Age: 10 hours

Current Status

Altitude 475.2 km
Velocity 7.63 km/s
Sub-Earth Point 7.98°N, 143.92°E
Launch Date Apr 28, 2025
Age 0.9 years
Type internet

Technical Details

Classification Payload
Mass 575.00 kg
Dry Mass 530.00 kg
Total Mass 575.00 kg
Length 0.30 m
Diameter 4.10 m
Span 29.00 m
Shape Box + pan
Manufacturer SPXS
Bus Type Starlink V2MO
Phase Status In Orbit
Owner/State SPXS/US

Large Constellations

Loading constellations...